Hourly Data Report for March 23, 2020

All times are specified in Local Standard Time (LST). Add 1 hour to adjust for Daylight Saving Time where and when it is observed.

OTTAWA INTL A
ONTARIO
Current Station Operator: NAVCAN

45°19'00.000" N
75°40'00.000" W
114.90 m
6106001
71628
YOW

Download Data

Hourly Data (March 2020)
Hourly Data Report for March 23, 2020
TIME Temp Definition
°C
Dew Point Definition
°C
Rel Hum Definition
%
Wind Dir Definition
10's deg

Wind Spd Definition
km/h
Visibility Definition
km
Stn Press Definition
kPa
Hmdx Definition


Wind Chill Definition


Weather Definition


00:00 -4.9 -12.2 57 8 25 24.1 102.03   -12 LegendNANA
01:00 -5.0 -11.3 61 8 24 24.1 101.99   -12 Mostly Cloudy
02:00 -5.0 -11.3 61 8 23 24.1 101.88   -12 LegendNANA
03:00 -5.2 -11.4 62 8 19 24.1 101.76   -12 LegendNANA
04:00 -5.5 -11.5 63 7 18 24.1 101.65   -12 Cloudy
05:00 -5.5 -11.2 64 7 14 24.1 101.56   -11 LegendNANA
06:00 -5.1 -10.7 65 7 18 24.1 101.53   -11 LegendNANA
07:00 -4.7 -9.8 67 7 11 12.9 101.54   -9 Snow
08:00 -4.6 -7.0 83 8 16 9.7 101.47   -10 Snow
09:00 -3.6 -5.5 86 7 16 4.8 101.38   -9 Snow
10:00 -2.5 -4.2 88 7 18 3.2 101.33   -8 Snow
11:00 -1.3 -2.8 89 8 16 4.8 101.24   -6 Snow
12:00 -0.8 -2.1 91 8 19 4.0 101.16   -6 Snow
13:00 -1.0 -1.9 93 7 14 2.4 101.07   -5 Snow
14:00 -0.8 -1.6 94 9 14 1.6 100.96   -5 Snow
15:00 -0.2 -0.9 95 10 16 2.4 100.88   -5 Snow
16:00 0.0 -0.8 94 10 17 3.2 100.81   -5 Snow
17:00 -0.2 -1.0 94 10 14 6.4 100.75   -4 Snow
18:00 -0.4 -1.2 94 10 15 6.4 100.72   -5 Snow
19:00 -0.8 -1.5 95 8 13 6.4 100.71   -5 Snow
20:00 -1.0 -1.6 95 8 14 4.8 100.72   -5 Snow
21:00 -1.0 -1.6 96 7 9 4.8 100.69   -4 Snow
22:00 -1.0 -1.6 96 2 9 6.4 100.69   -4 Snow
23:00 -1.3 -1.8 96 3 9 8.1 100.66   -5 Fog

Notes on Data Quality.

Legend

  • E = Estimated
  • M = Missing
  • NA = Not Available*
  • [empty] = Indicates an unobserved value
Date modified: